Regional Weather Roundup
Issued by NWS New Orleans/Baton Rouge, LA

Home | Current Version | Previous Version | Text Only | Print | Product List | Glossary Off
Versions: 1 2 3 4 5 6 7 8 9 10 11 12 13 14 15 16 17 18 19 20 21 22 23 24 25 26 27 28 29 30 31 32 33 34 35 36 37 38 39 40 41 42 43 44 45 46 47 48 49 50

653
ASUS44 KLIX 290101
RWRLIX
NEW ORLEANS REGIONAL WEATHER ROUNDUP
NATIONAL WEATHER SERVICE NEW ORLEANS LA
700 PM CST WED JAN 28 2015

NOTE: "FAIR" INDICATES FEW OR NO CLOUDS BELOW 12,000 FEET WITH NO
      SIGNIFICANT WEATHER AND/OR OBSTRUCTIONS TO VISIBILITY.
      SKY/WX - SKY CONDITION AND SIGNIFICANT WEATHER.
      TMP - AIR TEMPERATURE.     DP    - DEWPOINT TEMPERATURE.
      RH  - RELATIVE HUMIDITY.   PRES  - PRESSURE.
      HI  - HEAT INDEX.          WCI   - WIND CHILL INDEX.

*  THESE STATIONS ARE NOT NWS OR FAA STATIONS AND ARE NOT UNDER
   NWS QUALITY CONTROL.

LAZ038-040-048-061>063-065>067-069-290200-
SOUTHEAST LOUISIANA

CITY           SKY/WX    TMP DP  RH WIND       PRES   REMARKS
N.O. AUDUBON   NOT AVBL
N.O. INTL ARPT PTCLDY    56  43  61 SE7       30.25R
N.O. LAKEFRONT PTCLDY    55  39  54 S7        30.26R
N.O. DOWNTOWN* NOT AVBL
SLIDELL        CLEAR     48  42  80 CALM      30.24S
BATON ROUGE    CLEAR     57  34  41 E9        30.20F
BOOTHVILLE     CLEAR     53  48  83 CALM      30.26R
BELLE CHASSE   PTCLDY    50  41  71 CALM      30.25S
BOGALUSA*        N/A     58  42  56 S7        30.24F
GALLIANO*      NOT AVBL
NEW ROADS*     NOT AVBL
GONZALES*      NOT AVBL
HAMMOND*       NOT AVBL
HOUMA*         PTCLDY    52  43  73 SE3       30.25R
PORT FOURCHON* CLEAR     61  52  72 SE6       30.29R

$$

MSZ070-080>082-290200-
SOUTHERN MISSISSIPPI

CITY           SKY/WX    TMP DP  RH WIND       PRES   REMARKS
MCCOMB         MOCLDY    54  40  59 S8        30.20F
GULFPORT       CLEAR     49  44  83 SE3       30.25S
BILOXI         NOT AVBL
PASCAGOULA     CLEAR     45  42  89 CALM      30.26R
STENNIS ARPT*  CLEAR     46  41  81 CALM      30.25S

$$

COASTAL OBSERVATIONS
LAKE AND NEARSHORE STATIONS

STATION/POSITION TIME  TEMP    WIND        PRES    WAVE
                       AIR SEA DIR/SP/G            HT/PER
                 (UTC) (F)     (DEG/KT/KT) (MB)    (FT/S)
PASCAGOULA       0012   55     210/  5/  6 1023.7
WAVELAND YACHT   0012   53     180/  2/  3 1023.5
GRAND ISLE       0012   60 62  100/  5/  8 1024.5
SOUTHWEST PASS   0012   57 47   60/  6/  7 1024.3
NEW CANAL        0012   58 55  140/  3/  5 1024.5
SHELL BEACH      0012   54 57  130/  5/  6 1024.2

OFFSHORE STATIONS

STATION/POSITION TIME  TEMP    WIND        PRES    WAVE
                       AIR SEA DIR/SP/G            HT/PER
                 (UTC) (F)     (DEG/KT/KT) (MB)    (FT/S)
64 S DAUPHIN ISL 0038   61 68   90/  8/ 10 1025.0    2/ 5

$$




USA.gov is the U.S. government's official web portal to all federal, state and local government web resources and services.